Flag for U.S.A. Weather past 2 weeks in Newark, New Jersey, U.S.A.

Now
47 °F

Passing clouds.


Feels Like: 42 °F
Forecast: 29 / 46 °F
Wind: 9 mph from North

Location: Newark International Airport

Current Time: Mar 29, 2015 at 6:23:53 PM

Latest Report: Mar 29, 2015 at 4:51 PM


Visibility: 10 mi

Pressure: 30.17 "Hg

Humidity: 15%

Dew point: 2 °F

Location of NewarkLocation

Historic Weather in Newark — Graph

°F

Newark temperature yesterday

Maximum temperature yesterday: 43 °F (at 1:51 PM)
Minimum temperature yesterday: 28 °F (at 11:51 PM)
Average temperature yesterday: 37 °F

Past Weeks' High & Low Weather Summary

 TemperatureHumidityPressure
High63 °F (Mar 26, 7:51 PM)100% (Mar 26, 7:51 AM)30.42 "Hg (Mar 26, 7:51 AM)
Low23 °F (Mar 23, 6:51 AM)15% (Mar 29, 4:51 PM)29.56 "Hg (Mar 17, 10:51 AM)
Average39 °F54%30.03 "Hg
* Reported Mar 14 4:51 PM — Mar 29 4:51 PM, Newark, Weather by CustomWeather, © 2015

Note: Actual official high and low records may vary slightly from our data, if they occured in-between our weather recording intervals... More about our weather records

Advertising

Newark weather history for previous 24 hours

 ConditionsComfort  
Time TempWeatherWind HumidityBarometerVisibility
4:51 PM
Sun, Mar 29
47 °FPassing clouds.9 mph15%30.17 "Hg10 mi
3:51 PM46 °FPassing clouds.3 mph16%30.18 "Hg10 mi
2:51 PM45 °FPassing clouds.10 mph17%30.21 "Hg10 mi
1:51 PM44 °FSunny.6 mph16%30.24 "Hg10 mi
12:51 PM41 °FSunny.13 mph18%30.27 "Hg10 mi
11:51 AM39 °FSunny.12 mph19%30.29 "Hg10 mi
10:51 AM36 °FPassing clouds.9 mph21%30.29 "Hg10 mi
9:51 AM33 °FPassing clouds.12 mph25%30.29 "Hg10 mi
8:51 AM30 °FScattered clouds.12 mph33%30.28 "Hg10 mi
7:51 AM26 °FScattered clouds.8 mph40%30.27 "Hg10 mi
6:51 AM25 °FPassing clouds.12 mph40%30.23 "Hg10 mi
5:51 AM26 °FOvercast.10 mph37%30.20 "Hg10 mi
4:51 AM26 °FMostly cloudy.15 mph48%30.19 "Hg10 mi
3:51 AM27 °FOvercast.15 mph41%30.16 "Hg10 mi
2:51 AM27 °FMostly cloudy.18 mph41%30.16 "Hg10 mi
1:51 AM27 °FMostly cloudy.17 mph49%30.15 "Hg10 mi
12:51 AM27 °FMostly cloudy.17 mph58%30.14 "Hg10 mi
11:51 PM
Sat, Mar 28
28 °FPassing clouds.15 mph61%30.13 "Hg10 mi
10:51 PM30 °FPassing clouds.17 mph49%30.11 "Hg10 mi
9:51 PM31 °FPassing clouds.15 mph41%30.08 "Hg10 mi
8:51 PM32 °FPassing clouds.16 mph41%30.05 "Hg10 mi
7:51 PM34 °FPartly sunny.18 mph42%30.00 "Hg10 mi
6:51 PM37 °FPartly sunny.18 mph39%29.96 "Hg10 mi
Weather by CustomWeather, © 2015

See weather overviewHow to use our weather pages